NSZ3647 EKCH-LFMN

Flight info

Callsign NSZ3647
Flight time 2h 11m
Altitude 36000
Route NEXEN T503 GIMRU DCT MICOS DCT OTMON DCT BOMBI DCT GIGET DCT ABUKA DCT KRH DCT NATOR/N0439F350 DCT TRA DCT RIPUS DCT GERSA DCT SOSON DCT ODINA DCT ENOBA Z185 ASBOP/N0349F190 Z185 BORDI
Aircraft B738/M-SDE2E3GHIJ1LRWXY/LB1

Departure

Time 2026-05-04 18:51
Airport Copenhagen Kastrup Airport (EKCH)

Arrival

Time 2026-05-04 21:02
Airport Nice-Côte d'Azur Airport (LFMN)
Time Latitude Longitude Altitude Speed Heading
2026-05-04 18:20 55.62815 12.64219 27 ft 0 kts 123°
2026-05-04 18:35 55.62828 12.64183 24 ft 4 kts 117°
2026-05-04 18:35 55.62838 12.64140 27 ft 4 kts 101°
2026-05-04 18:35 55.62838 12.64097 27 ft 2 kts 68°
2026-05-04 18:36 55.62829 12.64057 24 ft 4 kts 65°
2026-05-04 18:36 55.62817 12.64015 28 ft 4 kts 54°
2026-05-04 18:36 55.62800 12.63983 27 ft 2 kts 32°
2026-05-04 18:36 55.62782 12.63959 28 ft 4 kts 67°
2026-05-04 18:37 55.62782 12.63917 28 ft 4 kts 112°
2026-05-04 18:37 55.62787 12.63896 24 ft 0 kts 116°
2026-05-04 18:39 55.62793 12.63875 23 ft 4 kts 117°
2026-05-04 18:39 55.62796 12.63863 24 ft 0 kts 115°
2026-05-04 18:40 55.62796 12.63864 24 ft 0 kts 115°
2026-05-04 18:40 55.62790 12.63888 23 ft 5 kts 116°
2026-05-04 18:41 55.62742 12.63913 23 ft 11 kts 201°
2026-05-04 18:41 55.62673 12.63850 23 ft 11 kts 183°
2026-05-04 18:41 55.62628 12.63924 23 ft 1 kts 123°
2026-05-04 18:41 55.62624 12.63936 24 ft 1 kts 123°
2026-05-04 18:42 55.62619 12.63948 23 ft 1 kts 123°
2026-05-04 18:42 55.62615 12.63958 23 ft 1 kts 124°
2026-05-04 18:42 55.62611 12.63969 23 ft 1 kts 124°
2026-05-04 18:42 55.62601 12.63995 23 ft 5 kts 123°
2026-05-04 18:43 55.62578 12.64061 23 ft 7 kts 123°
2026-05-04 18:43 55.62560 12.64109 23 ft 7 kts 123°
2026-05-04 18:43 55.62522 12.64211 24 ft 8 kts 123°
2026-05-04 18:43 55.62493 12.64288 23 ft 7 kts 126°
2026-05-04 18:44 55.62465 12.64351 23 ft 6 kts 129°
2026-05-04 18:44 55.62458 12.64366 23 ft 0 kts 129°
2026-05-04 18:44 55.62455 12.64373 23 ft 2 kts 129°
2026-05-04 18:45 55.62431 12.64425 23 ft 8 kts 132°
2026-05-04 18:45 55.62378 12.64440 23 ft 8 kts 193°
2026-05-04 18:45 55.62347 12.64427 22 ft 0 kts 194°
2026-05-04 18:47 55.62320 12.64415 24 ft 9 kts 194°
2026-05-04 18:47 55.62234 12.64372 20 ft 15 kts 202°
2026-05-04 18:48 55.62143 12.64295 23 ft 14 kts 203°
2026-05-04 18:48 55.62055 12.64222 25 ft 14 kts 206°
2026-05-04 18:48 55.61966 12.64146 25 ft 15 kts 201°
2026-05-04 18:48 55.61873 12.64078 23 ft 14 kts 191°
2026-05-04 18:49 55.61789 12.64077 24 ft 8 kts 176°
2026-05-04 18:49 55.61756 12.64081 23 ft 2 kts 176°
2026-05-04 18:49 55.61747 12.64082 26 ft 0 kts 176°
2026-05-04 18:49 55.61744 12.64082 26 ft 2 kts 176°
2026-05-04 18:50 55.61711 12.64086 24 ft 8 kts 176°
2026-05-04 18:50 55.61645 12.64085 26 ft 10 kts 194°
2026-05-04 18:50 55.61587 12.64011 26 ft 11 kts 222°
2026-05-04 18:50 55.61534 12.63925 26 ft 10 kts 222°
2026-05-04 18:51 55.61457 12.63805 24 ft 38 kts 221°
2026-05-04 18:51 55.61028 12.63142 29 ft 123 kts 221°
2026-05-04 18:51 55.60218 12.61888 218 ft 176 kts 225°
2026-05-04 18:51 55.59266 12.60370 1005 ft 195 kts 224°
2026-05-04 18:52 55.58225 12.58784 2024 ft 197 kts 223°
2026-05-04 18:52 55.57170 12.57231 2819 ft 204 kts 223°
2026-05-04 18:52 55.55988 12.55576 3076 ft 228 kts 218°
2026-05-04 18:52 55.54658 12.53929 3611 ft 237 kts 217°
2026-05-04 18:53 55.53263 12.52234 4076 ft 252 kts 217°
2026-05-04 18:53 55.51791 12.50446 4778 ft 260 kts 217°
2026-05-04 18:53 55.50303 12.48641 5746 ft 259 kts 217°
2026-05-04 18:53 55.48817 12.46835 6671 ft 260 kts 218°
2026-05-04 18:54 55.47319 12.45012 7517 ft 263 kts 218°
2026-05-04 18:54 55.45806 12.43167 8349 ft 266 kts 218°
2026-05-04 18:54 55.44272 12.41298 9202 ft 270 kts 218°
2026-05-04 18:54 55.42721 12.39408 10031 ft 273 kts 218°
2026-05-04 18:55 55.41124 12.37460 10469 ft 290 kts 218°
2026-05-04 18:55 55.37565 12.33117 11051 ft 330 kts 218°
2026-05-04 18:55 55.35663 12.30810 11751 ft 334 kts 218°
2026-05-04 18:56 55.33743 12.28487 12562 ft 336 kts 218°
2026-05-04 18:56 55.31816 12.26156 13363 ft 338 kts 218°
2026-05-04 18:56 55.29840 12.23767 14095 ft 341 kts 218°
2026-05-04 18:56 55.27875 12.21392 14777 ft 345 kts 218°
2026-05-04 18:57 55.25916 12.19025 15393 ft 349 kts 218°
2026-05-04 18:57 55.23902 12.16595 16037 ft 353 kts 218°
2026-05-04 18:57 55.21865 12.14142 16702 ft 356 kts 218°
2026-05-04 18:57 55.19816 12.11668 17358 ft 360 kts 219°
2026-05-04 18:58 55.17777 12.09102 17964 ft 363 kts 219°
2026-05-04 18:58 55.15734 12.06475 18559 ft 366 kts 219°
2026-05-04 18:58 55.13679 12.03821 19128 ft 369 kts 219°
2026-05-04 18:58 55.11605 12.01149 19688 ft 372 kts 219°
2026-05-04 18:59 55.09513 11.98463 20247 ft 374 kts 219°
2026-05-04 18:59 55.07403 11.95764 20791 ft 377 kts 219°
2026-05-04 18:59 55.05278 11.93053 21330 ft 380 kts 219°
2026-05-04 18:59 55.03134 11.90323 21860 ft 383 kts 219°
2026-05-04 19:00 55.00967 11.87570 22384 ft 386 kts 219°
2026-05-04 19:00 54.98792 11.84811 22909 ft 389 kts 219°
2026-05-04 19:00 54.96600 11.82033 23414 ft 391 kts 219°
2026-05-04 19:00 54.94387 11.79234 23838 ft 393 kts 220°
2026-05-04 19:01 54.92193 11.76466 24526 ft 388 kts 220°
2026-05-04 19:01 54.90012 11.73715 25036 ft 388 kts 220°
2026-05-04 19:01 54.87823 11.70954 25427 ft 390 kts 220°
2026-05-04 19:01 54.85622 11.68180 25832 ft 392 kts 220°
2026-05-04 19:02 54.83412 11.65402 26274 ft 392 kts 220°
2026-05-04 19:02 54.81201 11.62630 26725 ft 393 kts 221°
2026-05-04 19:02 54.78984 11.59859 27153 ft 393 kts 221°
2026-05-04 19:02 54.76759 11.57088 27553 ft 394 kts 221°
2026-05-04 19:03 54.74526 11.54312 27945 ft 395 kts 221°
2026-05-04 19:03 54.72289 11.51533 28328 ft 397 kts 221°
2026-05-04 19:03 54.70042 11.48746 28688 ft 397 kts 221°
2026-05-04 19:03 54.67801 11.45970 29102 ft 397 kts 221°
2026-05-04 19:04 54.65552 11.43186 29451 ft 398 kts 221°
2026-05-04 19:04 54.63292 11.40392 29766 ft 400 kts 221°
2026-05-04 19:04 54.61035 11.37604 30152 ft 399 kts 221°
2026-05-04 19:04 54.58781 11.34826 30567 ft 397 kts 221°
2026-05-04 19:05 54.56529 11.32055 30837 ft 398 kts 220°
2026-05-04 19:05 54.54265 11.29274 31061 ft 401 kts 220°
2026-05-04 19:05 54.51991 11.26492 31337 ft 402 kts 220°
2026-05-04 19:05 54.49713 11.23712 31646 ft 402 kts 220°
2026-05-04 19:06 54.47432 11.20929 31871 ft 403 kts 220°
2026-05-04 19:06 54.45137 11.18133 32067 ft 405 kts 220°
2026-05-04 19:06 54.42837 11.15333 32350 ft 406 kts 220°
2026-05-04 19:06 54.40536 11.12537 32687 ft 405 kts 220°
2026-05-04 19:07 54.38237 11.09746 32967 ft 405 kts 220°
2026-05-04 19:07 54.35929 11.06946 33191 ft 407 kts 220°
2026-05-04 19:07 54.33644 11.04180 33456 ft 407 kts 220°
2026-05-04 19:07 54.31259 11.01437 33746 ft 410 kts 215°
2026-05-04 19:08 54.28723 10.99271 33990 ft 417 kts 206°
2026-05-04 19:08 54.25974 10.97618 34203 ft 420 kts 204°
2026-05-04 19:08 54.23170 10.95998 34379 ft 421 kts 204°
2026-05-04 19:08 54.20432 10.94420 34582 ft 421 kts 204°
2026-05-04 19:09 54.17652 10.92812 34801 ft 421 kts 204°
2026-05-04 19:09 54.14882 10.91202 35021 ft 421 kts 204°
2026-05-04 19:09 54.12106 10.89582 35215 ft 422 kts 204°
2026-05-04 19:09 54.09327 10.87955 35415 ft 422 kts 204°
2026-05-04 19:10 54.06549 10.86328 35627 ft 422 kts 204°
2026-05-04 19:10 54.03766 10.84698 35829 ft 423 kts 204°
2026-05-04 19:10 54.00983 10.83070 35945 ft 425 kts 204°
2026-05-04 19:10 53.98174 10.81427 35957 ft 428 kts 204°
2026-05-04 19:11 53.92533 10.78137 35960 ft 428 kts 203°
2026-05-04 19:11 53.86932 10.74888 35957 ft 422 kts 203°
2026-05-04 19:12 53.78625 10.70077 35966 ft 420 kts 204°
2026-05-04 19:13 53.73099 10.66887 35960 ft 419 kts 203°
2026-05-04 19:13 53.67578 10.63708 35966 ft 419 kts 203°
2026-05-04 19:14 53.62049 10.60534 35967 ft 420 kts 203°
2026-05-04 19:14 53.56509 10.57363 35967 ft 421 kts 203°
2026-05-04 19:15 53.50943 10.54184 35974 ft 426 kts 203°
2026-05-04 19:15 53.45283 10.50958 35969 ft 433 kts 203°
2026-05-04 19:16 53.39558 10.47709 35955 ft 435 kts 203°
2026-05-04 19:16 53.35749 10.45555 35957 ft 436 kts 203°
2026-05-04 19:17 53.29955 10.42284 35955 ft 436 kts 202°
2026-05-04 19:17 53.24225 10.39060 35942 ft 430 kts 202°
2026-05-04 19:18 53.18604 10.35907 35950 ft 424 kts 202°
2026-05-04 19:18 53.13012 10.32772 35959 ft 424 kts 202°
2026-05-04 19:19 53.07411 10.29640 35966 ft 425 kts 202°
2026-05-04 19:19 53.01799 10.26512 35966 ft 426 kts 202°
2026-05-04 19:20 52.96217 10.23411 35968 ft 426 kts 202°
2026-05-04 19:20 52.90581 10.20289 35967 ft 427 kts 202°
2026-05-04 19:21 52.84942 10.17173 35968 ft 428 kts 202°
2026-05-04 19:21 52.79292 10.14060 35955 ft 428 kts 202°
2026-05-04 19:22 52.73649 10.10960 35961 ft 428 kts 202°
2026-05-04 19:22 52.67997 10.07863 35966 ft 428 kts 202°
2026-05-04 19:23 52.62343 10.04773 35972 ft 428 kts 202°
2026-05-04 19:23 52.56696 10.01695 35958 ft 428 kts 202°
2026-05-04 19:24 52.51050 9.98627 35969 ft 427 kts 202°
2026-05-04 19:24 52.45420 9.95575 35965 ft 426 kts 202°
2026-05-04 19:25 52.39788 9.92531 35965 ft 426 kts 202°
2026-05-04 19:25 52.34166 9.89499 35955 ft 425 kts 201°
2026-05-04 19:26 52.28550 9.86480 35969 ft 425 kts 201°
2026-05-04 19:26 52.22938 9.83470 35969 ft 424 kts 201°
2026-05-04 19:27 52.17331 9.80471 35975 ft 424 kts 201°
2026-05-04 19:27 52.11724 9.77480 35958 ft 424 kts 201°
2026-05-04 19:28 52.06120 9.74499 35970 ft 424 kts 201°
2026-05-04 19:28 52.00517 9.71526 35978 ft 423 kts 201°
2026-05-04 19:29 51.94915 9.68561 35976 ft 423 kts 201°
2026-05-04 19:29 51.89315 9.65606 35978 ft 423 kts 201°
2026-05-04 19:30 51.84664 9.63156 35979 ft 423 kts 201°
2026-05-04 19:30 51.79066 9.60215 35986 ft 423 kts 201°
2026-05-04 19:31 51.73471 9.57284 35985 ft 423 kts 201°
2026-05-04 19:31 51.67873 9.54358 35988 ft 423 kts 201°
2026-05-04 19:32 51.62273 9.51439 35982 ft 423 kts 201°
2026-05-04 19:32 51.56675 9.48529 35992 ft 423 kts 201°
2026-05-04 19:33 51.51076 9.45625 35993 ft 423 kts 201°
2026-05-04 19:33 51.45475 9.42728 35998 ft 423 kts 201°
2026-05-04 19:34 51.39871 9.39836 35989 ft 423 kts 200°
2026-05-04 19:34 51.34277 9.36957 35980 ft 422 kts 200°
2026-05-04 19:35 51.28683 9.34089 35997 ft 422 kts 200°
2026-05-04 19:35 51.23033 9.31468 35997 ft 423 kts 198°
2026-05-04 19:36 51.17357 9.28971 35990 ft 423 kts 198°
2026-05-04 19:36 51.11701 9.26470 35998 ft 422 kts 198°
2026-05-04 19:37 51.08137 9.24880 35992 ft 421 kts 198°
2026-05-04 19:37 51.02534 9.22373 35992 ft 421 kts 198°
2026-05-04 19:38 50.96860 9.19840 35984 ft 420 kts 198°
2026-05-04 19:38 50.91232 9.17333 35990 ft 420 kts 198°
2026-05-04 19:39 50.85606 9.14833 35988 ft 420 kts 198°
2026-05-04 19:39 50.79982 9.12341 35984 ft 420 kts 198°
2026-05-04 19:40 50.74352 9.09854 35981 ft 420 kts 198°
2026-05-04 19:40 50.68723 9.07372 35980 ft 420 kts 198°
2026-05-04 19:41 50.63096 9.04898 35984 ft 420 kts 198°
2026-05-04 19:41 50.57466 9.02428 35983 ft 420 kts 198°
2026-05-04 19:42 50.51874 8.99981 35971 ft 420 kts 198°
2026-05-04 19:42 50.46245 8.97524 35980 ft 420 kts 197°
2026-05-04 19:43 50.40609 8.95070 35984 ft 420 kts 197°
2026-05-04 19:43 50.34975 8.92623 35978 ft 420 kts 197°
2026-05-04 19:44 50.29335 8.90179 35973 ft 421 kts 197°
2026-05-04 19:44 50.23696 8.87742 35977 ft 421 kts 197°
2026-05-04 19:45 50.18051 8.85307 35977 ft 421 kts 197°
2026-05-04 19:45 50.12399 8.82875 35966 ft 421 kts 197°
2026-05-04 19:46 50.06747 8.80451 35963 ft 421 kts 197°
2026-05-04 19:46 50.00965 8.78856 35973 ft 423 kts 189°
2026-05-04 19:47 49.95112 8.77757 35972 ft 424 kts 189°
2026-05-04 19:47 49.89263 8.76614 35980 ft 424 kts 189°
2026-05-04 19:48 49.83410 8.75422 35973 ft 424 kts 189°
2026-05-04 19:48 49.77559 8.74223 35976 ft 424 kts 189°
2026-05-04 19:49 49.71704 8.73027 35980 ft 425 kts 189°
2026-05-04 19:49 49.65846 8.71834 35987 ft 425 kts 189°
2026-05-04 19:50 49.59983 8.70639 35984 ft 425 kts 189°
2026-05-04 19:50 49.54156 8.69453 35994 ft 425 kts 189°
2026-05-04 19:51 49.48286 8.68263 35991 ft 426 kts 189°
2026-05-04 19:51 49.42411 8.67072 35994 ft 426 kts 189°
2026-05-04 19:52 49.36531 8.65881 35987 ft 426 kts 189°
2026-05-04 19:52 49.30654 8.64693 35987 ft 426 kts 189°
2026-05-04 19:53 49.24780 8.63508 35982 ft 426 kts 189°
2026-05-04 19:53 49.18908 8.62327 35958 ft 426 kts 189°
2026-05-04 19:54 49.13034 8.61147 35975 ft 426 kts 189°
2026-05-04 19:54 49.07158 8.59970 35978 ft 426 kts 189°
2026-05-04 19:55 49.01279 8.58795 35982 ft 426 kts 189°
2026-05-04 19:55 48.95443 8.57254 35986 ft 425 kts 193°
2026-05-04 19:56 48.89653 8.55337 35980 ft 426 kts 194°
2026-05-04 19:56 48.83861 8.53419 35993 ft 426 kts 194°
2026-05-04 19:57 48.78056 8.51531 35998 ft 427 kts 194°
2026-05-04 19:57 48.72238 8.49657 35989 ft 428 kts 194°
2026-05-04 19:58 48.66414 8.47788 35994 ft 428 kts 194°
2026-05-04 19:58 48.60627 8.45936 35997 ft 428 kts 194°
2026-05-04 19:59 48.54798 8.44074 35992 ft 428 kts 194°
2026-05-04 19:59 48.48966 8.42215 36003 ft 428 kts 194°
2026-05-04 20:00 48.43141 8.40362 35999 ft 428 kts 194°
2026-05-04 20:00 48.37313 8.38514 36011 ft 428 kts 194°
2026-05-04 20:01 48.31484 8.36668 36002 ft 428 kts 194°
2026-05-04 20:01 48.25648 8.34824 36007 ft 428 kts 194°
2026-05-04 20:02 48.19815 8.33002 36002 ft 428 kts 192°
2026-05-04 20:02 48.13845 8.32745 35996 ft 434 kts 175°
2026-05-04 20:03 48.07878 8.34233 36007 ft 435 kts 173°
2026-05-04 20:03 48.01903 8.35752 36008 ft 436 kts 174°
2026-05-04 20:04 47.95910 8.37225 36010 ft 437 kts 174°
2026-05-04 20:04 47.89903 8.38676 36005 ft 438 kts 174°
2026-05-04 20:05 47.83885 8.40125 36013 ft 438 kts 174°
2026-05-04 20:05 47.77859 8.41574 36012 ft 439 kts 174°
2026-05-04 20:06 47.71830 8.43021 35981 ft 439 kts 174°
2026-05-04 20:06 47.65785 8.44294 36008 ft 438 kts 177°
2026-05-04 20:07 47.59719 8.45149 36018 ft 438 kts 178°
2026-05-04 20:07 47.53639 8.45977 36017 ft 439 kts 178°
2026-05-04 20:08 47.47564 8.46849 36019 ft 439 kts 178°
2026-05-04 20:08 47.41481 8.47741 36021 ft 439 kts 178°
2026-05-04 20:09 47.35399 8.48631 36016 ft 439 kts 178°
2026-05-04 20:09 47.29358 8.49511 36016 ft 440 kts 178°
2026-05-04 20:10 47.23268 8.50397 36010 ft 440 kts 178°
2026-05-04 20:10 47.17178 8.51280 36013 ft 440 kts 178°
2026-05-04 20:11 47.11085 8.52162 36018 ft 440 kts 178°
2026-05-04 20:11 47.04985 8.53043 35989 ft 441 kts 178°
2026-05-04 20:12 46.98889 8.53923 36016 ft 440 kts 178°
2026-05-04 20:12 46.92792 8.54803 36015 ft 440 kts 178°
2026-05-04 20:13 46.86714 8.55679 36054 ft 437 kts 178°
2026-05-04 20:13 46.80647 8.56549 36052 ft 439 kts 178°
2026-05-04 20:14 46.74574 8.57419 36054 ft 439 kts 178°
2026-05-04 20:14 46.68484 8.58289 36042 ft 440 kts 178°
2026-05-04 20:15 46.62400 8.59158 36077 ft 440 kts 178°
2026-05-04 20:15 46.56290 8.60027 36097 ft 442 kts 178°
2026-05-04 20:16 46.50154 8.60898 36074 ft 443 kts 178°
2026-05-04 20:16 46.44029 8.61767 36097 ft 442 kts 178°
2026-05-04 20:17 46.37907 8.62632 36098 ft 443 kts 178°
2026-05-04 20:17 46.32806 8.63352 36095 ft 443 kts 178°
2026-05-04 20:18 46.26667 8.64217 36077 ft 443 kts 178°
2026-05-04 20:18 46.20534 8.65079 36074 ft 442 kts 178°
2026-05-04 20:19 46.14412 8.65939 36085 ft 442 kts 178°
2026-05-04 20:19 46.08301 8.66213 36077 ft 436 kts 191°
2026-05-04 20:20 46.02314 8.64940 36086 ft 435 kts 191°
2026-05-04 20:20 45.96338 8.63650 36086 ft 434 kts 191°
2026-05-04 20:21 45.90359 8.62402 36087 ft 434 kts 191°
2026-05-04 20:21 45.81383 8.60569 36083 ft 434 kts 191°
2026-05-04 20:22 45.75407 8.59356 36081 ft 433 kts 191°
2026-05-04 20:22 45.69440 8.58148 36075 ft 433 kts 191°
2026-05-04 20:23 45.63479 8.56942 36066 ft 433 kts 191°
2026-05-04 20:23 45.57519 8.55739 36075 ft 432 kts 191°
2026-05-04 20:24 45.51565 8.54540 36077 ft 432 kts 191°
2026-05-04 20:24 45.45605 8.53342 36077 ft 432 kts 191°
2026-05-04 20:25 45.39691 8.52156 36077 ft 432 kts 191°
2026-05-04 20:25 45.33745 8.50967 36076 ft 432 kts 191°
2026-05-04 20:26 45.27793 8.49778 36076 ft 432 kts 191°
2026-05-04 20:26 45.21937 8.48616 36063 ft 414 kts 192°
2026-05-04 20:27 45.16275 8.47493 36075 ft 409 kts 192°
2026-05-04 20:27 45.10653 8.46373 36093 ft 407 kts 192°
2026-05-04 20:28 45.05040 8.45259 35915 ft 409 kts 192°
2026-05-04 20:28 45.02236 8.44704 35647 ft 404 kts 192°
2026-05-04 20:28 44.99469 8.44160 35219 ft 400 kts 192°
2026-05-04 20:29 44.96733 8.43619 34866 ft 395 kts 193°
2026-05-04 20:29 44.94098 8.42706 34478 ft 386 kts 204°
2026-05-04 20:29 44.91678 8.41186 34129 ft 378 kts 211°
2026-05-04 20:29 44.89375 8.39434 33687 ft 375 kts 211°
2026-05-04 20:30 44.87050 8.37662 32671 ft 386 kts 211°
2026-05-04 20:30 44.84663 8.35849 31821 ft 393 kts 210°
2026-05-04 20:30 44.82244 8.34023 31181 ft 394 kts 210°
2026-05-04 20:30 44.79831 8.32213 30733 ft 391 kts 210°
2026-05-04 20:31 44.77443 8.30428 30330 ft 387 kts 209°
2026-05-04 20:31 44.75074 8.28662 29821 ft 384 kts 209°
2026-05-04 20:31 44.72723 8.26911 29296 ft 381 kts 209°
2026-05-04 20:31 44.70413 8.25193 28741 ft 380 kts 209°
2026-05-04 20:32 44.68086 8.23463 28161 ft 378 kts 209°
2026-05-04 20:32 44.65764 8.21739 27623 ft 377 kts 209°
2026-05-04 20:32 44.63451 8.20023 27121 ft 375 kts 209°
2026-05-04 20:32 44.61153 8.18319 26642 ft 372 kts 208°
2026-05-04 20:33 44.58869 8.16628 26148 ft 370 kts 208°
2026-05-04 20:33 44.56595 8.14945 25665 ft 369 kts 208°
2026-05-04 20:33 44.54329 8.13270 25203 ft 367 kts 208°
2026-05-04 20:33 44.52074 8.11604 24738 ft 366 kts 208°
2026-05-04 20:34 44.49826 8.09945 24287 ft 364 kts 208°
2026-05-04 20:34 44.47587 8.08294 23845 ft 363 kts 208°
2026-05-04 20:34 44.45359 8.06653 23365 ft 361 kts 208°
2026-05-04 20:34 44.43141 8.05020 22907 ft 359 kts 208°
2026-05-04 20:35 44.40942 8.03403 22480 ft 355 kts 208°
2026-05-04 20:35 44.38766 8.01804 22065 ft 352 kts 208°
2026-05-04 20:35 44.36604 8.00217 21605 ft 350 kts 208°
2026-05-04 20:35 44.34460 7.98644 21176 ft 347 kts 208°
2026-05-04 20:36 44.32332 7.97083 20746 ft 345 kts 208°
2026-05-04 20:36 44.30212 7.95531 20322 ft 343 kts 208°
2026-05-04 20:36 44.28107 7.93990 19902 ft 341 kts 208°
2026-05-04 20:36 44.26010 7.92457 19468 ft 339 kts 208°
2026-05-04 20:37 44.23929 7.90936 19063 ft 337 kts 208°
2026-05-04 20:37 44.21857 7.89423 18688 ft 335 kts 208°
2026-05-04 20:37 44.19801 7.87924 18263 ft 332 kts 208°
2026-05-04 20:37 44.17757 7.86433 17803 ft 331 kts 208°
2026-05-04 20:38 44.15725 7.84953 17372 ft 329 kts 208°
2026-05-04 20:38 44.13701 7.83480 16959 ft 327 kts 208°
2026-05-04 20:38 44.11692 7.82024 16590 ft 325 kts 206°
2026-05-04 20:38 44.09575 7.80960 16174 ft 325 kts 193°
2026-05-04 20:39 44.07335 7.80597 15783 ft 324 kts 182°
2026-05-04 20:39 44.05089 7.80644 15321 ft 322 kts 180°
2026-05-04 20:39 44.02850 7.80724 14829 ft 322 kts 180°
2026-05-04 20:39 44.00629 7.80804 14504 ft 317 kts 180°
2026-05-04 20:40 43.98429 7.80878 14210 ft 314 kts 180°
2026-05-04 20:40 43.96290 7.80946 14140 ft 302 kts 180°
2026-05-04 20:40 43.94258 7.81008 14053 ft 290 kts 180°
2026-05-04 20:40 43.92248 7.81069 13979 ft 280 kts 180°
2026-05-04 20:41 43.90356 7.81123 13883 ft 272 kts 180°
2026-05-04 20:41 43.88488 7.81174 13695 ft 266 kts 180°
2026-05-04 20:41 43.86633 7.81224 13354 ft 267 kts 180°
2026-05-04 20:41 43.84781 7.81273 13054 ft 266 kts 180°
2026-05-04 20:42 43.82937 7.81322 12780 ft 264 kts 180°
2026-05-04 20:42 43.81104 7.81371 12502 ft 263 kts 180°
2026-05-04 20:42 43.79284 7.81420 12214 ft 261 kts 179°
2026-05-04 20:42 43.77470 7.81468 11924 ft 260 kts 179°
2026-05-04 20:43 43.75668 7.81517 11645 ft 258 kts 179°
2026-05-04 20:43 43.73885 7.81565 11431 ft 255 kts 179°
2026-05-04 20:43 43.72098 7.81612 11186 ft 260 kts 179°
2026-05-04 20:43 43.70240 7.81662 10960 ft 273 kts 179°
2026-05-04 20:44 43.68316 7.81713 10726 ft 280 kts 179°
2026-05-04 20:44 43.66370 7.81765 10537 ft 280 kts 179°
2026-05-04 20:44 43.64425 7.81817 10295 ft 279 kts 179°
2026-05-04 20:44 43.62491 7.81869 10051 ft 277 kts 179°
2026-05-04 20:45 43.60580 7.81920 9800 ft 272 kts 178°
2026-05-04 20:45 43.58699 7.81970 9529 ft 269 kts 178°
2026-05-04 20:45 43.56843 7.82020 9260 ft 265 kts 178°
2026-05-04 20:45 43.55007 7.82069 8992 ft 262 kts 179°
2026-05-04 20:46 43.53193 7.82119 8741 ft 259 kts 179°
2026-05-04 20:46 43.51398 7.82168 8484 ft 259 kts 179°
2026-05-04 20:46 43.49597 7.82215 8225 ft 259 kts 178°
2026-05-04 20:46 43.47808 7.82262 7977 ft 255 kts 178°
2026-05-04 20:47 43.46036 7.82309 7722 ft 254 kts 178°
2026-05-04 20:47 43.44292 7.82355 7644 ft 245 kts 178°
2026-05-04 20:47 43.42600 7.82400 7635 ft 242 kts 178°
2026-05-04 20:47 43.40885 7.82375 7639 ft 252 kts 188°
2026-05-04 20:48 43.39282 7.81395 7637 ft 258 kts 218°
2026-05-04 20:48 43.38214 7.79441 7638 ft 264 kts 243°
2026-05-04 20:48 43.37841 7.76914 7652 ft 270 kts 264°
2026-05-04 20:48 43.37786 7.74359 7653 ft 272 kts 265°
2026-05-04 20:49 43.37785 7.71758 7658 ft 273 kts 268°
2026-05-04 20:49 43.37829 7.69150 7657 ft 274 kts 268°
2026-05-04 20:49 43.37859 7.66534 7657 ft 274 kts 266°
2026-05-04 20:49 43.37848 7.63921 7658 ft 274 kts 266°
2026-05-04 20:50 43.37859 7.61297 7656 ft 274 kts 265°
2026-05-04 20:50 43.37923 7.58673 7663 ft 275 kts 272°
2026-05-04 20:50 43.38097 7.56068 7661 ft 274 kts 272°
2026-05-04 20:50 43.38285 7.53461 7661 ft 275 kts 273°
2026-05-04 20:51 43.38475 7.50840 7662 ft 274 kts 273°
2026-05-04 20:51 43.38665 7.48257 7655 ft 270 kts 273°
2026-05-04 20:51 43.38856 7.45710 7646 ft 266 kts 273°
2026-05-04 20:51 43.39044 7.43143 7654 ft 273 kts 273°
2026-05-04 20:52 43.39231 7.40523 7665 ft 277 kts 272°
2026-05-04 20:52 43.39437 7.37877 7667 ft 279 kts 273°
2026-05-04 20:52 43.39647 7.35238 7663 ft 277 kts 273°
2026-05-04 20:52 43.39851 7.32613 7656 ft 276 kts 272°
2026-05-04 20:53 43.40070 7.29991 7654 ft 276 kts 273°
2026-05-04 20:53 43.40300 7.27377 7573 ft 277 kts 275°
2026-05-04 20:53 43.40628 7.24750 7271 ft 278 kts 278°
2026-05-04 20:53 43.40978 7.22140 6996 ft 277 kts 278°
2026-05-04 20:54 43.41332 7.19536 6715 ft 277 kts 278°
2026-05-04 20:54 43.41685 7.16940 6429 ft 276 kts 278°
2026-05-04 20:54 43.42025 7.14348 6156 ft 275 kts 278°
2026-05-04 20:54 43.42355 7.11796 6035 ft 268 kts 278°
2026-05-04 20:55 43.42678 7.09309 5917 ft 260 kts 278°
2026-05-04 20:55 43.42984 7.06893 5805 ft 254 kts 278°
2026-05-04 20:55 43.43397 7.04568 5694 ft 248 kts 294°
2026-05-04 20:55 43.44192 7.02529 5625 ft 239 kts 298°
2026-05-04 20:56 43.44990 7.00494 5376 ft 243 kts 298°
2026-05-04 20:56 43.45818 6.98449 5146 ft 245 kts 307°
2026-05-04 20:56 43.47118 6.97061 4864 ft 234 kts 346°
2026-05-04 20:56 43.48647 6.97114 4621 ft 213 kts 28°
2026-05-04 20:57 43.49688 6.98400 4386 ft 197 kts 59°
2026-05-04 20:57 43.50484 6.99894 4124 ft 190 kts 53°
2026-05-04 20:57 43.51355 7.01229 3857 ft 184 kts 50°
2026-05-04 20:57 43.52226 7.02468 3621 ft 176 kts 50°
2026-05-04 20:58 43.53071 7.03646 3387 ft 170 kts 49°
2026-05-04 20:58 43.53889 7.04779 3173 ft 164 kts 49°
2026-05-04 20:58 43.54686 7.05884 2956 ft 162 kts 49°
2026-05-04 20:58 43.55490 7.06997 2734 ft 166 kts 50°
2026-05-04 20:59 43.56298 7.08115 2516 ft 162 kts 50°
2026-05-04 20:59 43.57064 7.09172 2302 ft 150 kts 49°
2026-05-04 20:59 43.57780 7.10162 2106 ft 147 kts 49°
2026-05-04 20:59 43.58495 7.11152 1907 ft 146 kts 49°
2026-05-04 21:00 43.59212 7.12144 1706 ft 144 kts 50°
2026-05-04 21:00 43.59891 7.13082 1498 ft 132 kts 49°
2026-05-04 21:00 43.60529 7.13965 1355 ft 130 kts 49°
2026-05-04 21:00 43.61186 7.14875 1158 ft 141 kts 43°
2026-05-04 21:01 43.61905 7.15867 974 ft 148 kts 43°
2026-05-04 21:01 43.62628 7.16866 763 ft 146 kts 43°
2026-05-04 21:01 43.63331 7.17850 557 ft 142 kts 43°
2026-05-04 21:01 43.64023 7.18819 365 ft 142 kts 41°
2026-05-04 21:02 43.64734 7.19781 200 ft 144 kts 43°
2026-05-04 21:02 43.65444 7.20768 29 ft 143 kts 42°
2026-05-04 21:02 43.66080 7.21639 19 ft 110 kts 45°
2026-05-04 21:02 43.66333 7.21970 22 ft 17 kts 20°
2026-05-04 21:03 43.66444 7.22023 20 ft 17 kts 22°
2026-05-04 21:03 43.66517 7.22054 21 ft 3 kts 359°
2026-05-04 21:03 43.66518 7.22054 21 ft 0 kts 359°
2026-05-04 21:03 43.66523 7.22052 20 ft 2 kts 344°
2026-05-04 21:04 43.66552 7.22026 20 ft 8 kts 316°
2026-05-04 21:04 43.66600 7.21959 20 ft 12 kts 318°
2026-05-04 21:04 43.66641 7.21863 20 ft 12 kts 256°
2026-05-04 21:04 43.66587 7.21774 20 ft 12 kts 225°
2026-05-04 21:05 43.66529 7.21693 20 ft 12 kts 225°
2026-05-04 21:05 43.66472 7.21615 20 ft 11 kts 223°
2026-05-04 21:05 43.66454 7.21592 20 ft 2 kts 223°
2026-05-04 21:05 43.66442 7.21576 20 ft 2 kts 223°
2026-05-04 21:06 43.66437 7.21564 20 ft 2 kts 250°
2026-05-04 21:06 43.66445 7.21536 20 ft 4 kts 302°
2026-05-04 21:06 43.66462 7.21511 20 ft 4 kts 315°
2026-05-04 21:06 43.66474 7.21495 20 ft 0 kts 315°
2026-05-04 21:08 43.66473 7.21496 20 ft 0 kts 315°